User: anonymous   Login
Location: Muenchen
(48.1800°N, 11.5800°E)
Time: 04:33:46
(UTC+02:00)
Language:

Cosmos 2233 Rocket - Orbit

View from above orbital plane
View from above orbital plane
View from above satellite
View from above satellite

Ground track
Ground track

The orbit data is extracted from the following two-line orbital elements,

1 22488U 93008B   15241.85467022 +.00000089 +00000-0 +74145-4 0  9993
2 22488 082.9428 207.5765 0023840 267.5036 109.8725 13.77681184133462
Epoch (UTC): 29 August 2015 20:30:43
Eccentricity: 0.0023840
inclination: 82.9428°
perigee height: 954 km
apogee height: 989 km
right ascension of ascending node: 207.5765°
argument of perigee: 267.5036°
revolutions per day: 13.77681184
mean anomaly at epoch: 109.8725°
orbit number at epoch: 13346

The dashed part of the orbit path shows where the satellite is in the earth's shadow,  

DLR